This is the latest recevied weather packets stored in our database for station/object WA1NHP. If no packets are shown the sender has not sent any weather packets the latest 10 day(s).
| Time | Temp. | Humidity | Pressure | Rain* | Wind** | Luminosity | Snow |
|---|---|---|---|---|---|---|---|
| 1787852044 | 23.89° C | 79% | 1023.9 hPa | 0 mm | - | 244 W/m² | - |
| 1787851444 | 23.89° C | 82% | 1023.9 hPa | 0 mm | - | 381 W/m² | - |
| 1787850844 | 23.33° C | 84% | 1023.9 hPa | 0 mm | - | 654 W/m² | - |
| 1787850244 | 22.78° C | 85% | 1023.9 hPa | 0 mm | - | 475 W/m² | - |
| 1787849644 | 22.78° C | 83% | 1023.9 hPa | 0 mm | - | 294 W/m² | - |
| 1787849044 | 22.78° C | 85% | 1023.9 hPa | 0 mm | - | 352 W/m² | - |
| 1787848444 | 22.22° C | 87% | 1023.9 hPa | 0 mm | - | 492 W/m² | - |
| 1787847844 | 22.22° C | 86% | 1023.9 hPa | 0 mm | - | 185 W/m² | - |
| 1787847244 | 22.22° C | 87% | 1023.9 hPa | 0 mm | - | 193 W/m² | - |
| 1787846644 | 22.22° C | 85% | 1023.9 hPa | 0 mm | - | 220 W/m² | - |
| 1787846044 | 22.22° C | 83% | 1023.9 hPa | 0 mm | - | 248 W/m² | - |
| 1787845444 | 22.22° C | 85% | 1023.9 hPa | 0 mm | - | 195 W/m² | - |
| 1787844843 | 22.22° C | 83% | 1023.9 hPa | 0 mm | - | 348 W/m² | - |
| 1787844243 | 22.22° C | 85% | 1023.9 hPa | 0 mm | - | 401 W/m² | - |
| 1787843643 | 22.22° C | 85% | 1023.9 hPa | 0 mm | - | 352 W/m² | - |
| 1787843044 | 22.22° C | 85% | 1023.9 hPa | 0 mm | - | 346 W/m² | - |
| 1787842444 | 22.22° C | 85% | 1023.9 hPa | 0 mm | - | 309 W/m² | - |
| 1787841843 | 22.22° C | 83% | 1023.9 hPa | 0 mm | - | 350 W/m² | - |
| 1787841243 | 22.22° C | 87% | 1023.9 hPa | 0 mm | - | 679 W/m² | - |
| 1787840644 | 21.11° C | 90% | 1023.9 hPa | 0 mm | - | 712 W/m² | - |
| 1787840044 | 20.56° C | 94% | 1023.9 hPa | 0 mm | - | 287 W/m² | - |
| 1787839444 | 20.56° C | 95% | 1023.9 hPa | 0 mm | - | 213 W/m² | - |
| 1787838845 | 20° C | 97% | 1023.9 hPa | 0 mm | - | 156 W/m² | - |
| 1787838244 | 19.44° C | 98% | 1023.9 hPa | 0 mm | - | 322 W/m² | - |
| 1787837644 | 19.44° C | 98% | 1023.9 hPa | 0 mm | - | 135 W/m² | - |
* Rain latest hour (hover to see other rain measurements)
** Current wind speed in m/s (hover to see current wind gust speed)